Flag for U.S.A. Weather past 2 weeks in Port Angeles, Washington, U.S.A.

Now
42 °F

Clear.


Feels Like: 42 °F
Forecast: 41 / 55 °F
Wind: No wind

Location: William R. Fairchild International Airport

Current Time: Mar 6, 2015 at 9:26:02 PM

Latest Report: Mar 6, 2015 at 8:53 PM


Visibility: 10 mi

Pressure: 30.37 "Hg

Humidity: 89%

Dew point: 39 °F

Location of Port AngelesLocation

Historic Weather in Port Angeles — Graph

°F

Port Angeles temperature yesterday

Maximum temperature yesterday: 51 °F (at 12:53 PM)
Minimum temperature yesterday: 34 °F (at 11:53 PM)
Average temperature yesterday: 43 °F

Past Weeks' High & Low Weather Summary

 TemperatureHumidityPressure
High54 °F (Feb 21, 1:53 PM)97% (Feb 27, 12:02 AM)30.48 "Hg (Feb 27, 12:02 AM)
Low29 °F (Mar 4, 12:53 AM)22% (Mar 3, 2:53 PM)29.73 "Hg (Feb 27, 3:53 AM)
Average44 °F75%30.25 "Hg
* Reported Feb 19 7:53 PM — Mar 6 7:53 PM, Port Angeles, Weather by CustomWeather, © 2015

Note: Actual official high and low records may vary slightly from our data, if they occured in-between our weather recording intervals... More about our weather records

Advertising

Port Angeles weather history for previous 24 hours

 ConditionsComfort  
Time TempWeatherWind HumidityBarometerVisibility
7:53 PM
Fri, Mar 6
44 °FClear.5 mph82%30.37 "Hg10 mi
6:53 PM45 °FClear.No wind80%30.37 "Hg10 mi
5:53 PM48 °FSunny.6 mph68%30.37 "Hg10 mi
4:53 PM52 °FSunny.5 mph57%30.38 "Hg10 mi
3:53 PM53 °FSunny.6 mph52%30.39 "Hg10 mi
2:53 PM53 °FSunny.5 mph56%30.40 "Hg10 mi
1:53 PM52 °FSunny.5 mph59%30.41 "Hg10 mi
12:53 PM51 °FSunny.7 mph66%30.43 "Hg10 mi
11:53 AM52 °FSunny.8 mph59%30.45 "Hg10 mi
10:53 AM50 °FSunny.7 mph68%30.45 "Hg10 mi
9:53 AM49 °FSunny.6 mph74%30.45 "Hg10 mi
8:53 AM46 °FSunny.5 mph86%30.43 "Hg10 mi
7:53 AM44 °FLow clouds.3 mph89%30.42 "Hg10 mi
6:53 AM41 °FLow clouds.3 mph89%30.41 "Hg10 mi
5:53 AM38 °FLow clouds.3 mph93%30.41 "Hg10 mi
4:53 AM36 °FPassing clouds.3 mph92%30.41 "Hg10 mi
3:53 AM36 °FClear.3 mph92%30.40 "Hg10 mi
2:53 AM35 °FClear.No wind96%30.40 "Hg10 mi
1:53 AM36 °FClear.No wind92%30.40 "Hg10 mi
12:53 AM37 °FClear.No wind89%30.40 "Hg10 mi
11:53 PM
Thu, Mar 5
34 °FClear.3 mph92%30.40 "Hg10 mi
10:53 PM39 °FClear.No wind89%30.40 "Hg10 mi
9:53 PM38 °FClear.3 mph90%30.40 "Hg10 mi
Weather by CustomWeather, © 2015

See weather overviewHow to use our weather pages